パンスターズ彗星

C/2020 U5 ( PanSTARRS )

English version
Home page
Updated on September 18, 2021

---------------------------------------------------------------------

・ プロフィール

発見日 2020年10月22日
発見光度 20.4等
発見者 Pan-STARRS 1 telescope (Haleakala)

・ 写真集

・ 軌道要素

Epoch 2022 Apr. 11.0 TT = JDT 2459680.5
T 2022 Apr. 27.89096 TT                                 Rudenko
q   3.7559572            (2000.0)            P               Q
z  +0.0001861      Peri.   75.41729     +0.04188190     +0.31879278
 +/-0.0000026      Node   107.33620     -0.12787877     -0.93822506
e   0.9993010      Incl.   97.27005     +0.99090511     -0.13455447
From 237 observations 2020 Sept. 25-2021 Sept. 1, mean residual 0".6.

・ 星図

・ 光度変化

        m1 = 7.5 + 5 logΔ + 10.0 log r

---------------------------------------------------------------------

軌道要素はM.P.E.C. 2021-R75に掲載されたものです。
星図はステラナビゲータ Ver.10 (アストロアーツ) で作成したものです。
光度グラフはComet for Windowsで作成したものです。

---------------------------------------------------------------------

Copyright(C) Seiichi Yoshida (comet@aerith.net). All rights reserved.